| time (UTC) | temp F | wind direction | speed MPH | gust MPH | rain 1hr in | rain 24hr in | rain mn in | humidity % | barometer mb |
| 20260505123035 | 66 | 205 | 2.0 | 6.0 | 0.00 | 0.00 | 0.00 | 83 | 1018.8 |
| 20260505121531 | 65 | 209 | 1.0 | 3.0 | 0.00 | 0.00 | 0.00 | 89 | 1018.7 |
| 20260505120030 | 63 | 209 | 0.0 | 0.0 | 0.00 | 0.00 | 0.00 | 90 | 1018.7 |
| 20260505114528 | 62 | 209 | 0.0 | 0.0 | 0.00 | 0.00 | 0.00 | 89 | 1018.4 |
| 20260505113027 | 61 | 209 | 0.0 | 0.0 | 0.00 | 0.00 | 0.00 | 89 | 1018.3 |
| 20260505111527 | 60 | 209 | 0.0 | 0.0 | 0.00 | 0.00 | 0.00 | 88 | 1018.2 |
| 20260505101541 | 60 | 209 | 0.0 | 0.0 | 0.00 | 0.00 | 0.00 | 87 | 1017.3 |
| 20260505100046 | 60 | 209 | 0.0 | 0.0 | 0.00 | 0.00 | 0.00 | 87 | 1017.2 |
| 20260505094524 | 60 | 209 | 0.0 | 0.0 | 0.00 | 0.00 | 0.00 | 87 | 1017.2 |
| 20260505093023 | 60 | 209 | 0.0 | 0.0 | 0.00 | 0.00 | 0.00 | 86 | 1017.1 |
| 20260505091519 | 61 | 209 | 0.0 | 0.0 | 0.00 | 0.00 | 0.00 | 86 | 1017.1 |
| 20260505090017 | 61 | 209 | 0.0 | 0.0 | 0.00 | 0.00 | 0.00 | 86 | 1017.0 |
| 20260505084515 | 61 | 209 | 0.0 | 0.0 | 0.00 | 0.00 | 0.00 | 86 | 1017.1 |
| 20260505083013 | 62 | 209 | 0.0 | 0.0 | 0.00 | 0.00 | 0.00 | 85 | 1017.0 |
| 20260505081512 | 62 | 209 | 0.0 | 1.0 | 0.00 | 0.00 | 0.00 | 84 | 1016.8 |
| 20260505080008 | 63 | 209 | 0.0 | 2.0 | 0.00 | 0.00 | 0.00 | 84 | 1016.7 |
| 20260505074509 | 63 | 209 | 0.0 | 2.0 | 0.00 | 0.00 | 0.00 | 83 | 1016.7 |
| 20260505073024 | 63 | 209 | 0.0 | 3.0 | 0.00 | 0.00 | 0.00 | 82 | 1016.6 |
| 20260505071504 | 64 | 208 | 0.0 | 3.0 | 0.00 | 0.00 | 0.00 | 81 | 1016.7 |
| 20260505070003 | 64 | 208 | 1.0 | 4.0 | 0.00 | 0.00 | 0.00 | 81 | 1016.7 |
| 20260505064601 | 64 | 212 | 1.0 | 3.0 | 0.00 | 0.00 | 0.00 | 79 | 1016.8 |
| 20260505063113 | 65 | 209 | 1.0 | 3.0 | 0.00 | 0.00 | 0.00 | 78 | 1016.8 |
| 20260505061557 | 65 | 210 | 1.0 | 6.0 | 0.00 | 0.00 | 0.00 | 77 | 1017.1 |
| 20260505060055 | 66 | 216 | 2.0 | 8.0 | 0.00 | 0.00 | 0.00 | 77 | 1017.2 |
| 20260505054554 | 66 | 206 | 2.0 | 7.0 | 0.00 | 0.00 | 0.00 | 76 | 1017.2 |
| 20260505053054 | 66 | 220 | 4.0 | 7.0 | 0.00 | 0.00 | 0.00 | 76 | 1017.2 |
| 20260505051552 | 66 | 231 | 1.0 | 9.0 | 0.00 | 0.00 | 0.00 | 74 | 1017.2 |
| 20260505041548 | 66 | 208 | 2.0 | 8.0 | 0.00 | 0.00 | 0.00 | 70 | 1017.5 |
| 20260505040046 | 66 | 195 | 3.0 | 11.0 | 0.00 | 0.00 | 0.00 | 70 | 1017.6 |
| 20260505034549 | 66 | 186 | 1.0 | 11.0 | 0.00 | 0.00 | 0.00 | 69 | 1017.5 |
| 20260505033046 | 67 | 224 | 2.0 | 9.0 | 0.00 | 0.00 | 0.00 | 69 | 1017.6 |
| 20260505031550 | 67 | 220 | 4.0 | 9.0 | 0.00 | 0.00 | 0.00 | 68 | 1017.7 |
| 20260505030044 | 67 | 244 | 3.0 | 9.0 | 0.00 | 0.00 | 0.00 | 68 | 1017.7 |
| 20260505024546 | 67 | 207 | 4.0 | 7.0 | 0.00 | 0.00 | 0.00 | 68 | 1017.7 |
| 20260505023050 | 67 | 217 | 5.0 | 12.0 | 0.00 | 0.00 | 0.00 | 68 | 1017.7 |
| 20260505021545 | 67 | 230 | 3.0 | 11.0 | 0.00 | 0.00 | 0.00 | 68 | 1017.7 |
| 20260505020046 | 67 | 204 | 3.0 | 8.0 | 0.00 | 0.00 | 0.00 | 68 | 1017.7 |
| 20260505014549 | 67 | 203 | 3.0 | 9.0 | 0.00 | 0.00 | 0.00 | 68 | 1017.8 |
| 20260505013042 | 67 | 224 | 4.0 | 11.0 | 0.00 | 0.00 | 0.00 | 67 | 1017.4 |
| 20260505011543 | 67 | 219 | 4.0 | 10.0 | 0.00 | 0.00 | 0.00 | 67 | 1017.2 |
| 20260505004540 | 67 | 208 | 2.0 | 10.0 | 0.00 | 0.00 | 0.00 | 66 | 1016.9 |
| 20260505003044 | 67 | 211 | 2.0 | 10.0 | 0.00 | 0.00 | 0.00 | 65 | 1016.7 |
| 20260505001540 | 68 | 236 | 4.0 | 10.0 | 0.00 | 0.00 | 0.00 | 66 | 1016.7 |
| 20260505000045 | 68 | 199 | 4.0 | 11.0 | 0.00 | 0.00 | 0.00 | 65 | 1016.7 |
| 20260504234539 | 68 | 178 | 2.0 | 10.0 | 0.00 | 0.00 | 0.00 | 65 | 1016.6 |
| 20260504233039 | 69 | 174 | 4.0 | 12.0 | 0.00 | 0.00 | 0.00 | 64 | 1016.5 |
| 20260504231544 | 69 | 176 | 3.0 | 15.0 | 0.00 | 0.00 | 0.00 | 64 | 1016.4 |
| 20260504230044 | 70 | 194 | 6.0 | 15.0 | 0.00 | 0.00 | 0.00 | 61 | 1016.3 |
| 20260504224537 | 70 | 214 | 4.0 | 12.0 | 0.00 | 0.00 | 0.00 | 62 | 1016.5 |
| 20260504223037 | 71 | 201 | 6.0 | 12.0 | 0.00 | 0.00 | 0.00 | 61 | 1016.7 |
| 20260504221548 | 71 | 232 | 6.0 | 13.0 | 0.00 | 0.00 | 0.00 | 61 | 1016.7 |
| 20260504220035 | 71 | 173 | 7.0 | 15.0 | 0.00 | 0.00 | 0.00 | 60 | 1016.6 |
| 20260504214535 | 71 | 219 | 9.0 | 17.0 | 0.00 | 0.00 | 0.00 | 58 | 1016.7 |
| 20260504213047 | 72 | 193 | 9.0 | 17.0 | 0.00 | 0.00 | 0.00 | 57 | 1016.8 |
| 20260504211537 | 71 | 191 | 7.0 | 15.0 | 0.00 | 0.00 | 0.00 | 58 | 1016.7 |
| 20260504210032 | 71 | 215 | 9.0 | 20.0 | 0.00 | 0.00 | 0.00 | 57 | 1016.7 |
| 20260504204532 | 72 | 204 | 10.0 | 19.0 | 0.00 | 0.00 | 0.00 | 56 | 1016.7 |
| 20260504203043 | 72 | 196 | 9.0 | 18.0 | 0.00 | 0.00 | 0.00 | 54 | 1016.9 |
| 20260504201530 | 72 | 209 | 10.0 | 20.0 | 0.00 | 0.00 | 0.00 | 54 | 1016.7 |
| 20260504200029 | 72 | 214 | 8.0 | 17.0 | 0.00 | 0.00 | 0.00 | 55 | 1017.2 |
| 20260504194537 | 72 | 197 | 9.0 | 23.0 | 0.00 | 0.00 | 0.00 | 54 | 1017.2 |
| 20260504193028 | 72 | 208 | 11.0 | 20.0 | 0.00 | 0.00 | 0.00 | 53 | 1017.3 |
| 20260504191536 | 72 | 132 | 7.0 | 21.0 | 0.00 | 0.00 | 0.00 | 56 | 1017.3 |
| 20260504190025 | 72 | 204 | 9.0 | 22.0 | 0.00 | 0.00 | 0.00 | 54 | 1017.7 |
| 20260504184524 | 73 | 243 | 9.0 | 21.0 | 0.00 | 0.00 | 0.00 | 55 | 1017.7 |
| 20260504183024 | 73 | 141 | 5.0 | 17.0 | 0.00 | 0.00 | 0.00 | 54 | 1017.7 |
| 20260504181524 | 74 | 200 | 6.0 | 13.0 | 0.00 | 0.00 | 0.00 | 52 | 1017.8 |
| 20260504180022 | 73 | 205 | 7.0 | 17.0 | 0.00 | 0.00 | 0.00 | 52 | 1017.7 |
| 20260504174521 | 72 | 254 | 3.0 | 16.0 | 0.00 | 0.00 | 0.00 | 55 | 1017.8 |
| 20260504173021 | 73 | 195 | 7.0 | 18.0 | 0.00 | 0.00 | 0.00 | 51 | 1017.9 |
| 20260504171528 | 73 | 84 | 7.0 | 17.0 | 0.00 | 0.00 | 0.00 | 54 | 1018.0 |